Tracking 19717 objects as of 25-Jun-2019
HD Live streaming from Space Station
objects crossing your sky now

SL-8 DEB *

Track SL-8 DEB * now!
10-day predictions


NORAD ID: 14803
Int'l Code: 1978-019D
Perigee: 568.4 km
Apogee: 571.0 km
Inclination: 74.0 °
Period: 95.9 minutes
Semi major axis: 6940 km
RCS: 0.0099 m2 (small)
Launch date: February 17, 1978
Source: Commonwealth of Independent States (former USSR) (CIS)
Launch site: PLESETSK MISSILE AND SPACE COMPLEX (PKMTR)

Note: This is SATELLITE DEBRIS
aabbcc
Your satellite tracking list
Your tracking list is empty




NASA's NSSDC Master Catalog

Two Line Element Set (TLE):
1 14803U 78019D   19175.28624223 +.00000716 +00000-0 +58756-4 0  9992
2 14803 074.0244 023.3601 0001835 044.7792 072.8768 15.01409111048771
Source of the keplerian elements: AFSPC